KC7O Weather Reports


Display with metric or nautical units.
time (UTC)temp
F
wind
direction
speed
MPH
gust
MPH
rain 1hr
in
rain 24hr
in
rain mn
in
humidity
%
barometer
mb
20260502220348 77 168 2.0 6.0 0.00 0.00 0.00 59 1010.0
20260502215355 77 173 3.0 6.0 0.00 0.00 0.00 59 1010.1
20260502214902 77 150 2.0 6.0 0.00 0.00 0.00 60 1010.3
20260502214347 77 233 0.0 3.0 0.00 0.00 0.00 60 1010.4
20260502213854 77 281 2.0 8.0 0.00 0.00 0.00 60 1010.5
20260502213403 77 276 3.0 8.0 0.00 0.00 0.00 59 1010.5
20260502212855 77 276 1.0 6.0 0.00 0.00 0.00 60 1010.6
20260502212401 77 294 2.0 6.0 0.00 0.00 0.00 60 1010.7
20260502211848 77 266 3.0 6.0 0.00 0.00 0.00 60 1010.7
20260502211416 77 178 3.0 6.0 0.00 0.00 0.00 61 1010.7
20260502210923 76 172 2.0 6.0 0.00 0.00 0.00 61 1010.7
20260502210351 76 193 3.0 6.0 0.00 0.00 0.00 62 1010.7
20260502205858 76 172 3.0 6.0 0.00 0.00 0.00 61 1010.7
20260502205345 76 141 2.0 5.0 0.00 0.00 0.00 62 1010.7
20260502204854 76 210 1.0 6.0 0.00 0.00 0.00 62 1010.9
20260502204400 75 162 2.0 6.0 0.00 0.00 0.00 63 1011.0
20260502203846 75 152 3.0 4.0 0.00 0.00 0.00 63 1011.0
20260502203353 75 234 2.0 6.0 0.00 0.00 0.00 63 1011.1
20260502202903 76 161 2.0 6.0 0.00 0.00 0.00 63 1011.1
20260502202409 75 220 2.0 6.0 0.00 0.00 0.00 63 1011.2
20260502201914 75 176 3.0 6.0 0.00 0.00 0.00 63 1011.2
20260502201400 75 170 1.0 6.0 0.00 0.00 0.00 63 1011.2
20260502200906 75 257 2.0 6.0 0.00 0.00 0.00 64 1011.2
20260502200349 75 250 3.0 5.0 0.00 0.00 0.00 63 1011.3
20260502195855 75 131 2.0 5.0 0.00 0.00 0.00 64 1011.5
20260502195404 75 146 2.0 5.0 0.00 0.00 0.00 65 1011.4
20260502194851 74 141 2.0 5.0 0.00 0.00 0.00 64 1011.4
20260502194358 74 150 1.0 4.0 0.00 0.00 0.00 65 1011.5
20260502193845 74 200 1.0 4.0 0.00 0.00 0.00 66 1011.6
20260502193353 73 232 0.0 5.0 0.00 0.00 0.00 68 1011.8
20260502192857 73 273 2.0 5.0 0.00 0.00 0.00 67 1012.0
20260502192406 73 229 2.0 7.0 0.00 0.00 0.00 66 1012.0
20260502191857 72 283 1.0 7.0 0.00 0.00 0.00 68 1012.2
20260502191424 73 269 2.0 3.0 0.00 0.00 0.00 67 1012.1
20260502190911 72 102 2.0 5.0 0.00 0.00 0.00 67 1012.1
20260502190416 72 278 2.0 5.0 0.00 0.00 0.00 67 1012.2
20260502185902 72 274 2.0 5.0 0.00 0.00 0.00 68 1012.1
20260502185349 72 191 2.0 5.0 0.00 0.00 0.00 68 1012.1
20260502184855 71 139 2.0 4.0 0.00 0.00 0.00 69 1012.1
20260502184402 71 158 1.0 4.0 0.00 0.00 0.00 69 1012.2
20260502183852 71 186 2.0 4.0 0.00 0.00 0.00 70 1012.2
20260502183359 70 222 0.0 5.0 0.00 0.00 0.00 71 1012.3
20260502182355 69 148 2.0 5.0 0.00 0.00 0.00 70 1012.3
20260502181848 70 189 2.0 4.0 0.00 0.00 0.00 71 1012.4
20260502181355 69 163 2.0 4.0 0.00 0.00 0.00 72 1012.5
20260502180902 69 139 0.0 4.0 0.00 0.00 0.00 72 1012.7
20260502180411 69 275 1.0 4.0 0.00 0.00 0.00 73 1012.7
20260502170406 64 145 2.0 3.0 0.00 0.00 0.00 78 1013.2
20260502163856 62 191 1.0 3.0 0.00 0.00 0.00 82 1013.4
20260502163345 62 201 1.0 4.0 0.00 0.00 0.00 84 1013.5
20260502162851 62 245 2.0 4.0 0.00 0.00 0.00 83 1013.6
20260502162356 62 251 1.0 3.0 0.00 0.00 0.00 84 1013.4
20260502161900 62 274 1.0 3.0 0.00 0.00 0.00 84 1013.1
20260502161349 61 214 1.0 3.0 0.00 0.00 0.00 85 1013.1
20260502160853 61 138 0.0 2.0 0.00 0.00 0.00 86 1013.1
20260502160401 60 171 0.0 2.0 0.00 0.00 0.00 86 1013.2
20260502151855 58 147 0.0 3.0 0.00 0.00 0.00 90 1013.1
20260502151348 58 163 0.0 0.0 0.00 0.00 0.00 90 1013.2
20260502150855 58 178 0.0 2.0 0.00 0.00 0.00 90 1013.3
20260502150404 58 232 0.0 2.0 0.00 0.00 0.00 90 1013.4
20260502130412 55 206 0.0 0.0 0.00 0.00 0.00 95 1012.3
20260502123351 54 226 0.0 0.0 0.00 0.00 0.00 95 1012.1
20260502122854 54 226 0.0 0.0 0.00 0.00 0.00 95 1012.1
20260502122344 54 226 0.0 0.0 0.00 0.00 0.00 94 1012.1
20260502121847 54 226 0.0 0.0 0.00 0.00 0.00 94 1012.0
20260502121353 54 226 0.0 0.0 0.00 0.00 0.00 94 1011.9
20260502120857 54 226 0.0 0.0 0.00 0.00 0.00 94 1011.9
20260502120344 54 226 0.0 0.0 0.00 0.00 0.00 94 1011.9
20260502115851 54 226 0.0 0.0 0.00 0.00 0.00 94 1011.8
20260502115420 54 226 0.0 0.0 0.00 0.00 0.00 94 1011.7
20260502114846 54 226 0.0 0.0 0.00 0.00 0.00 94 1011.7
20260502114355 54 226 0.0 0.0 0.00 0.00 0.00 94 1011.8
20260502113923 54 226 0.0 0.0 0.00 0.00 0.00 94 1011.7
20260502113348 54 226 0.0 0.0 0.00 0.00 0.00 94 1011.6
20260502112917 54 226 0.0 0.0 0.00 0.00 0.00 94 1011.6
20260502112402 54 226 0.0 0.0 0.00 0.00 0.00 94 1011.6
20260502111852 54 226 0.0 0.0 0.00 0.00 0.00 93 1011.6
20260502111417 54 226 0.0 0.0 0.00 0.00 0.00 93 1011.5
20260502110849 54 226 0.0 0.0 0.00 0.00 0.00 93 1011.5
20260502110357 54 226 0.0 0.0 0.00 0.00 0.00 93 1011.5
20260502105845 54 226 0.0 0.0 0.00 0.00 0.00 93 1011.4
20260502105353 54 226 0.0 0.0 0.00 0.00 0.00 93 1011.5
20260502104921 55 226 0.0 0.0 0.00 0.00 0.00 93 1011.5
20260502104349 55 226 0.0 0.0 0.00 0.00 0.00 93 1011.4
20260502103857 55 226 0.0 0.0 0.00 0.00 0.00 93 1011.4
20260502103405 55 226 0.0 0.0 0.00 0.00 0.00 93 1011.4
20260502102853 55 226 0.0 0.0 0.00 0.00 0.00 93 1011.4
20260502102402 55 226 0.0 0.0 0.00 0.00 0.00 93 1011.2
20260502101850 55 226 0.0 0.0 0.00 0.00 0.00 93 1011.3
20260502101419 56 226 0.0 0.0 0.00 0.00 0.00 93 1011.2
20260502100847 55 226 0.0 0.0 0.00 0.00 0.00 93 1011.3
20260502100357 55 226 0.0 0.0 0.00 0.00 0.00 93 1011.3
20260502091353 55 226 0.0 0.0 0.00 0.00 0.00 92 1011.6
20260502090902 55 226 0.0 0.0 0.00 0.00 0.00 93 1011.6
20260502090350 55 226 0.0 0.0 0.00 0.00 0.00 93 1011.7
20260502071344 57 226 0.0 0.0 0.00 0.00 0.00 91 1012.5
20260502070911 57 226 0.0 0.0 0.00 0.00 0.00 91 1012.5
20260502070357 57 226 0.0 0.0 0.00 0.00 0.00 91 1012.4
20260502065850 57 226 0.0 0.0 0.00 0.00 0.00 91 1012.3
20260502065418 57 226 0.0 0.0 0.00 0.00 0.00 90 1012.4
20260502064903 57 226 0.0 0.0 0.00 0.00 0.00 90 1012.5
20260502064350 57 226 0.0 0.0 0.00 0.00 0.00 90 1012.4
20260502063917 57 226 0.0 0.0 0.00 0.00 0.00 90 1012.3
20260502063402 57 226 0.0 0.0 0.00 0.00 0.00 90 1012.3
20260502062849 57 226 0.0 0.0 0.00 0.00 0.00 90 1012.3
20260502062357 57 226 0.0 0.0 0.00 0.00 0.00 90 1012.2
20260502061846 57 226 0.0 0.0 0.00 0.00 0.00 89 1012.3
20260502061354 58 226 0.0 0.0 0.00 0.00 0.00 89 1012.3
20260502060847 58 226 0.0 0.0 0.00 0.00 0.00 89 1012.3
20260502060352 58 226 0.0 0.0 0.00 0.00 0.00 89 1012.3
20260502055901 58 226 0.0 0.0 0.00 0.00 0.00 89 1012.3
20260502055349 58 226 0.0 0.0 0.00 0.00 0.00 88 1012.4
20260502054858 58 226 0.0 0.0 0.00 0.00 0.00 88 1012.3
20260502054346 58 226 0.0 0.0 0.00 0.00 0.00 88 1012.4
20260502053854 58 226 0.0 0.0 0.00 0.00 0.00 88 1012.4
20260502053401 59 226 0.0 0.0 0.00 0.00 0.00 88 1012.4
20260502052850 59 226 0.0 0.0 0.00 0.00 0.00 87 1012.5
20260502052358 59 226 0.0 0.0 0.00 0.00 0.00 87 1012.4
20260502051846 59 226 0.0 0.0 0.00 0.00 0.00 87 1012.3
20260502051356 59 226 0.0 0.0 0.00 0.00 0.00 87 1012.3
20260502050905 59 226 0.0 0.0 0.00 0.00 0.00 86 1012.3
20260502050352 59 226 0.0 0.0 0.00 0.00 0.00 86 1012.3
20260502045900 60 226 0.0 0.0 0.00 0.00 0.00 85 1012.3
20260502045346 60 226 0.0 0.0 0.00 0.00 0.00 85 1012.3
20260502044854 60 226 0.0 0.0 0.00 0.00 0.00 85 1012.2
20260502044402 60 226 0.0 0.0 0.00 0.00 0.00 85 1012.1
20260502043848 60 226 0.0 0.0 0.00 0.00 0.00 84 1012.1
20260502043354 61 226 0.0 0.0 0.00 0.00 0.00 84 1012.1
20260502042900 61 226 0.0 0.0 0.00 0.00 0.00 84 1012.0
20260502042424 61 226 0.0 0.0 0.00 0.00 0.00 83 1011.9
20260502041851 61 226 0.0 0.0 0.00 0.00 0.00 83 1011.8
20260502041358 61 226 0.0 0.0 0.00 0.00 0.00 82 1011.8
20260502040900 62 224 0.0 0.0 0.00 0.00 0.00 82 1011.7
20260502040423 62 224 0.0 0.0 0.00 0.00 0.00 81 1011.7
20260502035848 62 224 0.0 0.0 0.00 0.00 0.00 81 1011.7
20260502035356 62 224 0.0 0.0 0.00 0.00 0.00 80 1011.5
20260502034845 63 226 0.0 1.0 0.00 0.00 0.00 80 1011.4
20260502034412 63 176 0.0 1.0 0.00 0.00 0.00 79 1011.3
20260502033850 63 214 0.0 1.0 0.00 0.00 0.00 79 1011.2
20260502033358 63 235 0.0 1.0 0.00 0.00 0.00 78 1011.1
20260502032848 64 164 0.0 0.0 0.00 0.00 0.00 78 1011.0
20260502032356 64 148 0.0 1.0 0.00 0.00 0.00 78 1011.0
20260502031847 64 145 0.0 2.0 0.00 0.00 0.00 77 1010.9
20260502031353 65 235 0.0 2.0 0.00 0.00 0.00 77 1010.9
20260502030901 65 186 0.0 2.0 0.00 0.00 0.00 76 1010.9
20260502030348 65 153 0.0 1.0 0.00 0.00 0.00 76 1010.8
20260502025858 66 227 0.0 3.0 0.00 0.00 0.00 75 1010.8
20260502025345 66 202 1.0 3.0 0.00 0.00 0.00 75 1010.7
20260502024854 66 191 0.0 2.0 0.00 0.00 0.00 74 1010.6
20260502024400 67 125 0.0 2.0 0.00 0.00 0.00 74 1010.5
20260502023849 67 242 0.0 2.0 0.00 0.00 0.00 73 1010.5
20260502023416 67 243 0.0 3.0 0.00 0.00 0.00 73 1010.4
20260502022845 68 252 0.0 3.0 0.00 0.00 0.00 72 1010.4
20260502022357 68 243 0.0 2.0 0.00 0.00 0.00 72 1010.3
20260502021845 68 243 0.0 3.0 0.00 0.00 0.00 72 1010.3
20260502021352 68 240 0.0 3.0 0.00 0.00 0.00 71 1010.2
20260502020859 69 175 1.0 3.0 0.00 0.00 0.00 71 1010.2
20260502020344 69 233 0.0 5.0 0.00 0.00 0.00 71 1010.2
20260502015851 69 153 1.0 5.0 0.00 0.00 0.00 70 1010.1
20260502015358 69 117 2.0 5.0 0.00 0.00 0.00 70 1010.1
20260502014907 70 151 1.0 3.0 0.00 0.00 0.00 69 1010.0
20260502014355 70 243 0.0 4.0 0.00 0.00 0.00 69 1010.0
20260502013844 71 225 2.0 4.0 0.00 0.00 0.00 68 1010.1
20260502013351 71 260 0.0 4.0 0.00 0.00 0.00 68 1010.0
20260502012858 72 146 2.0 5.0 0.00 0.00 0.00 67 1010.0
20260502012346 72 239 2.0 5.0 0.00 0.00 0.00 66 1009.9
20260502011857 72 239 1.0 5.0 0.00 0.00 0.00 65 1009.9
20260502011345 73 164 1.0 5.0 0.00 0.00 0.00 65 1009.9
20260502010853 73 172 1.0 4.0 0.00 0.00 0.00 64 1009.9
20260502010343 74 161 1.0 5.0 0.00 0.00 0.00 63 1009.8
20260502005851 74 176 2.0 5.0 0.00 0.00 0.00 63 1009.8
20260502005357 74 224 1.0 5.0 0.00 0.00 0.00 62 1009.8
20260502004846 74 275 1.0 5.0 0.00 0.00 0.00 62 1009.7
20260502004414 74 169 1.0 4.0 0.00 0.00 0.00 63 1009.7
20260502003858 74 219 1.0 4.0 0.00 0.00 0.00 62 1009.8
20260502003405 74 158 2.0 4.0 0.00 0.00 0.00 62 1009.8
20260502002850 74 224 3.0 5.0 0.00 0.00 0.00 61 1009.9
20260502002355 75 231 1.0 6.0 0.00 0.00 0.00 61 1009.9
20260502001902 75 278 3.0 6.0 0.00 0.00 0.00 61 1009.9
20260502001349 75 251 3.0 6.0 0.00 0.00 0.00 60 1009.9
20260502000853 75 242 3.0 6.0 0.00 0.00 0.00 60 1009.8
20260502000418 76 234 2.0 5.0 0.00 0.00 0.00 59 1009.8
20260501235844 76 274 2.0 5.0 0.00 0.00 0.00 59 1009.8
20260501235350 77 285 2.0 4.0 0.00 0.00 0.00 58 1009.8
20260501234859 77 212 2.0 5.0 0.00 0.00 0.00 58 1009.8
20260501234347 77 207 3.0 5.0 0.00 0.00 0.00 57 1009.8
20260501233855 78 187 2.0 4.0 0.00 0.00 0.00 56 1009.8
20260501233401 78 162 2.0 5.0 0.00 0.00 0.00 57 1009.7
20260501232849 78 207 1.0 5.0 0.00 0.00 0.00 56 1009.7
20260501232358 77 160 1.0 5.0 0.00 0.00 0.00 57 1009.8
20260501231850 78 261 2.0 5.0 0.00 0.00 0.00 57 1009.8
20260501231356 78 275 2.0 4.0 0.00 0.00 0.00 56 1009.8
20260501230843 78 226 3.0 5.0 0.00 0.00 0.00 56 1009.9
20260501230351 78 163 2.0 5.0 0.00 0.00 0.00 55 1009.9
20260501225918 79 171 2.0 6.0 0.00 0.00 0.00 55 1009.9
20260501225403 79 196 1.0 6.0 0.00 0.00 0.00 55 1010.0
20260501224849 79 238 2.0 5.0 0.00 0.00 0.00 55 1010.1
20260501224415 79 189 1.0 5.0 0.00 0.00 0.00 54 1010.1
20260501223902 79 176 2.0 4.0 0.00 0.00 0.00 54 1010.1
20260501223349 79 172 2.0 6.0 0.00 0.00 0.00 53 1010.1
20260501222855 79 176 3.0 6.0 0.00 0.00 0.00 53 1010.2
20260501222423 79 153 1.0 4.0 0.00 0.00 0.00 55 1010.3
20260501221845 78 212 2.0 6.0 0.00 0.00 0.00 55 1010.3
20260501221358 78 155 3.0 6.0 0.00 0.00 0.00 55 1010.5
20260501220846 78 131 2.0 4.0 0.00 0.00 0.00 55 1010.6